| time (UTC) | temp F | wind direction | speed MPH | gust MPH | rain 1hr in | rain 24hr in | rain mn in | humidity % | barometer mb |
| 20260905044049 | 64 | 0 | 0.0 | 0.0 | 0.00 | 0.00 | 0.00 | 43 | 1024.4 |
| 20260905043547 | 64 | 0 | 0.0 | 0.0 | 0.00 | 0.00 | 0.00 | 43 | 1024.5 |
| 20260905043100 | 64 | 0 | 0.0 | 0.0 | 0.00 | 0.00 | 0.00 | 43 | 1024.6 |
| 20260905042549 | 64 | 0 | 0.0 | 0.0 | 0.00 | 0.00 | 0.00 | 43 | 1024.5 |
| 20260905042046 | 64 | 0 | 0.0 | 0.0 | 0.00 | 0.00 | 0.00 | 42 | 1024.6 |
| 20260905041558 | 65 | 0 | 0.0 | 0.0 | 0.00 | 0.00 | 0.00 | 42 | 1024.7 |
| 20260905041045 | 65 | 0 | 0.0 | 0.0 | 0.00 | 0.00 | 0.00 | 41 | 1024.7 |
| 20260905040547 | 66 | 0 | 0.0 | 0.0 | 0.00 | 0.00 | 0.00 | 41 | 1024.7 |
| 20260905040055 | 66 | 0 | 0.0 | 0.0 | 0.00 | 0.00 | 0.00 | 41 | 1024.7 |
| 20260905035546 | 66 | 0 | 0.0 | 0.0 | 0.00 | 0.00 | 0.00 | 41 | 1024.8 |
| 20260905035046 | 66 | 0 | 0.0 | 0.0 | 0.00 | 0.00 | 0.00 | 41 | 1024.8 |
| 20260905034602 | 66 | 0 | 0.0 | 0.0 | 0.00 | 0.00 | 0.00 | 41 | 1024.9 |
| 20260905034046 | 66 | 0 | 0.0 | 0.0 | 0.00 | 0.00 | 0.00 | 40 | 1024.9 |
| 20260905033546 | 67 | 0 | 0.0 | 0.0 | 0.00 | 0.00 | 0.00 | 40 | 1024.8 |
| 20260905033101 | 67 | 0 | 0.0 | 0.0 | 0.00 | 0.00 | 0.00 | 40 | 1024.8 |
| 20260905032547 | 67 | 0 | 0.0 | 0.0 | 0.00 | 0.00 | 0.00 | 40 | 1024.8 |
| 20260905032049 | 67 | 0 | 0.0 | 0.0 | 0.00 | 0.00 | 0.00 | 40 | 1024.8 |
| 20260905031600 | 67 | 0 | 0.0 | 0.0 | 0.00 | 0.00 | 0.00 | 39 | 1024.7 |
| 20260905031047 | 68 | 0 | 0.0 | 0.0 | 0.00 | 0.00 | 0.00 | 39 | 1024.7 |
| 20260905030546 | 68 | 0 | 0.0 | 0.0 | 0.00 | 0.00 | 0.00 | 39 | 1024.7 |
| 20260905030100 | 68 | 0 | 0.0 | 0.0 | 0.00 | 0.00 | 0.00 | 39 | 1024.7 |
| 20260905025545 | 68 | 0 | 0.0 | 0.0 | 0.00 | 0.00 | 0.00 | 39 | 1024.7 |
| 20260905025047 | 69 | 0 | 0.0 | 0.0 | 0.00 | 0.00 | 0.00 | 38 | 1024.6 |
| 20260905024626 | 69 | 0 | 0.0 | 0.0 | 0.00 | 0.00 | 0.00 | 38 | 1024.6 |
| 20260905024052 | 69 | 0 | 0.0 | 0.0 | 0.00 | 0.00 | 0.00 | 38 | 1024.5 |
| 20260905023550 | 69 | 0 | 0.0 | 0.0 | 0.00 | 0.00 | 0.00 | 38 | 1024.5 |
| 20260905023105 | 69 | 0 | 0.0 | 0.0 | 0.00 | 0.00 | 0.00 | 38 | 1024.5 |
| 20260905022545 | 69 | 0 | 0.0 | 0.0 | 0.00 | 0.00 | 0.00 | 38 | 1024.4 |
| 20260905022045 | 68 | 0 | 0.0 | 0.0 | 0.00 | 0.00 | 0.00 | 38 | 1024.4 |
| 20260905021557 | 68 | 0 | 0.0 | 0.0 | 0.00 | 0.00 | 0.00 | 38 | 1024.3 |
| 20260905021046 | 68 | 0 | 0.0 | 0.0 | 0.00 | 0.00 | 0.00 | 38 | 1024.3 |
| 20260905020547 | 69 | 0 | 0.0 | 0.0 | 0.00 | 0.00 | 0.00 | 37 | 1024.3 |
| 20260905020056 | 69 | 0 | 0.0 | 0.0 | 0.00 | 0.00 | 0.00 | 37 | 1024.2 |
| 20260905015546 | 69 | 0 | 0.0 | 0.0 | 0.00 | 0.00 | 0.00 | 36 | 1024.2 |
| 20260905015045 | 70 | 0 | 0.0 | 0.0 | 0.00 | 0.00 | 0.00 | 36 | 1024.2 |
| 20260905014556 | 70 | 0 | 0.0 | 0.0 | 0.00 | 0.00 | 0.00 | 35 | 1024.2 |
| 20260905014049 | 71 | 0 | 0.0 | 0.0 | 0.00 | 0.00 | 0.00 | 34 | 1024.1 |
| 20260905013546 | 71 | 0 | 0.0 | 0.0 | 0.00 | 0.00 | 0.00 | 34 | 1024.0 |
| 20260905013059 | 72 | 0 | 0.0 | 0.0 | 0.00 | 0.00 | 0.00 | 33 | 1024.0 |
| 20260905012546 | 73 | 0 | 0.0 | 0.0 | 0.00 | 0.00 | 0.00 | 32 | 1023.9 |
| 20260905012047 | 74 | 0 | 0.0 | 0.0 | 0.00 | 0.00 | 0.00 | 31 | 1023.9 |
| 20260905011601 | 74 | 0 | 0.0 | 0.0 | 0.00 | 0.00 | 0.00 | 31 | 1023.9 |
| 20260905011048 | 75 | 0 | 0.0 | 2.0 | 0.00 | 0.00 | 0.00 | 30 | 1023.9 |
| 20260905010547 | 76 | 0 | 0.0 | 2.0 | 0.00 | 0.00 | 0.00 | 30 | 1024.0 |
| 20260905010100 | 76 | 0 | 0.0 | 3.0 | 0.00 | 0.00 | 0.00 | 29 | 1023.9 |
| 20260905005545 | 76 | 0 | 0.0 | 8.0 | 0.00 | 0.00 | 0.00 | 29 | 1023.8 |
| 20260905005047 | 77 | 0 | 0.0 | 8.0 | 0.00 | 0.00 | 0.00 | 28 | 1023.9 |
| 20260905004606 | 77 | 0 | 0.0 | 8.0 | 0.00 | 0.00 | 0.00 | 28 | 1023.8 |
| 20260905004047 | 77 | 0 | 0.0 | 3.0 | 0.00 | 0.00 | 0.00 | 27 | 1023.8 |
| 20260905003549 | 78 | 0 | 0.0 | 3.0 | 0.00 | 0.00 | 0.00 | 26 | 1023.8 |
| 20260905003100 | 78 | 0 | 0.0 | 1.0 | 0.00 | 0.00 | 0.00 | 26 | 1023.8 |
| 20260905002546 | 78 | 0 | 0.0 | 1.0 | 0.00 | 0.00 | 0.00 | 26 | 1023.7 |
| 20260905002050 | 78 | 0 | 0.0 | 0.0 | 0.00 | 0.00 | 0.00 | 25 | 1023.7 |
| 20260905001600 | 78 | 0 | 0.0 | 0.0 | 0.00 | 0.00 | 0.00 | 23 | 1023.7 |
| 20260905001049 | 78 | 0 | 0.0 | 0.0 | 0.00 | 0.00 | 0.00 | 23 | 1023.6 |
| 20260905000546 | 78 | 0 | 0.0 | 2.0 | 0.00 | 0.00 | 0.00 | 23 | 1023.6 |
| 20260905000058 | 79 | 0 | 0.0 | 2.0 | 0.00 | 0.00 | 0.00 | 23 | 1023.5 |
| 20260904235546 | 79 | 0 | 0.0 | 2.0 | 0.00 | 0.00 | 0.00 | 22 | 1023.5 |
| 20260904235047 | 79 | 0 | 0.0 | 0.0 | 0.00 | 0.00 | 0.00 | 22 | 1023.5 |
| 20260904234556 | 79 | 0 | 0.0 | 0.0 | 0.00 | 0.00 | 0.00 | 22 | 1023.5 |
| 20260904234045 | 79 | 0 | 0.0 | 2.0 | 0.00 | 0.00 | 0.00 | 22 | 1023.5 |
| 20260904233547 | 80 | 0 | 0.0 | 5.0 | 0.00 | 0.00 | 0.00 | 22 | 1023.5 |
| 20260904233104 | 80 | 0 | 0.0 | 9.0 | 0.00 | 0.00 | 0.00 | 22 | 1023.5 |
| 20260904232547 | 80 | 0 | 1.0 | 9.0 | 0.00 | 0.00 | 0.00 | 21 | 1023.4 |
| 20260904232044 | 80 | 39 | 1.0 | 10.0 | 0.00 | 0.00 | 0.00 | 22 | 1023.4 |
| 20260904231557 | 80 | 0 | 1.0 | 10.0 | 0.00 | 0.00 | 0.00 | 22 | 1023.4 |
| 20260904231050 | 80 | 0 | 0.0 | 7.0 | 0.00 | 0.00 | 0.00 | 22 | 1023.3 |
| 20260904230547 | 80 | 0 | 0.0 | 4.0 | 0.00 | 0.00 | 0.00 | 22 | 1023.3 |
| 20260904230058 | 80 | 0 | 0.0 | 4.0 | 0.00 | 0.00 | 0.00 | 21 | 1023.3 |
| 20260904225546 | 80 | 0 | 0.0 | 0.0 | 0.00 | 0.00 | 0.00 | 21 | 1023.2 |
| 20260904225046 | 80 | 0 | 0.0 | 0.0 | 0.00 | 0.00 | 0.00 | 21 | 1023.2 |
| 20260904224558 | 80 | 0 | 0.0 | 4.0 | 0.00 | 0.00 | 0.00 | 22 | 1023.2 |
| 20260904224048 | 80 | 0 | 0.0 | 4.0 | 0.00 | 0.00 | 0.00 | 21 | 1023.3 |
| 20260904223547 | 81 | 0 | 0.0 | 4.0 | 0.00 | 0.00 | 0.00 | 21 | 1023.2 |
| 20260904223109 | 81 | 0 | 0.0 | 3.0 | 0.00 | 0.00 | 0.00 | 21 | 1023.3 |
| 20260904222552 | 82 | 0 | 0.0 | 10.0 | 0.00 | 0.00 | 0.00 | 20 | 1023.2 |
| 20260904222046 | 82 | 0 | 0.0 | 11.0 | 0.00 | 0.00 | 0.00 | 20 | 1023.2 |
| 20260904221605 | 82 | 0 | 4.0 | 11.0 | 0.00 | 0.00 | 0.00 | 20 | 1023.1 |
| 20260904221047 | 82 | 63 | 1.0 | 10.0 | 0.00 | 0.00 | 0.00 | 21 | 1023.2 |
| 20260904220548 | 82 | 0 | 0.0 | 9.0 | 0.00 | 0.00 | 0.00 | 20 | 1023.2 |
| 20260904215548 | 82 | 0 | 1.0 | 9.0 | 0.00 | 0.00 | 0.00 | 20 | 1023.2 |
| 20260904215044 | 82 | 0 | 0.0 | 6.0 | 0.00 | 0.00 | 0.00 | 20 | 1023.2 |
| 20260904214609 | 82 | 77 | 1.0 | 6.0 | 0.00 | 0.00 | 0.00 | 20 | 1023.2 |
| 20260904214048 | 82 | 0 | 0.0 | 10.0 | 0.00 | 0.00 | 0.00 | 20 | 1023.2 |
| 20260904213547 | 82 | 0 | 0.0 | 11.0 | 0.00 | 0.00 | 0.00 | 20 | 1023.2 |
| 20260904213101 | 82 | 0 | 2.0 | 11.0 | 0.00 | 0.00 | 0.00 | 20 | 1023.2 |
| 20260904212545 | 82 | 76 | 1.0 | 10.0 | 0.00 | 0.00 | 0.00 | 20 | 1023.2 |
| 20260904212044 | 82 | 71 | 2.0 | 10.0 | 0.00 | 0.00 | 0.00 | 20 | 1023.3 |
| 20260904211605 | 82 | 0 | 3.0 | 10.0 | 0.00 | 0.00 | 0.00 | 20 | 1023.2 |
| 20260904211046 | 82 | 0 | 2.0 | 9.0 | 0.00 | 0.00 | 0.00 | 20 | 1023.2 |
| 20260904210545 | 82 | 0 | 1.0 | 10.0 | 0.00 | 0.00 | 0.00 | 20 | 1023.4 |
| 20260904210056 | 82 | 84 | 1.0 | 10.0 | 0.00 | 0.00 | 0.00 | 20 | 1023.3 |
| 20260904205547 | 82 | 59 | 3.0 | 9.0 | 0.00 | 0.00 | 0.00 | 20 | 1023.4 |
| 20260904205046 | 82 | 57 | 0.0 | 5.0 | 0.00 | 0.00 | 0.00 | 20 | 1023.5 |
| 20260904204558 | 82 | 87 | 1.0 | 10.0 | 0.00 | 0.00 | 0.00 | 20 | 1023.4 |
| 20260904204048 | 82 | 0 | 0.0 | 10.0 | 0.00 | 0.00 | 0.00 | 20 | 1023.5 |
| 20260904203547 | 81 | 38 | 3.0 | 10.0 | 0.00 | 0.00 | 0.00 | 20 | 1023.5 |
| 20260904203102 | 81 | 202 | 0.0 | 5.0 | 0.00 | 0.00 | 0.00 | 21 | 1023.7 |
| 20260904202545 | 80 | 52 | 0.0 | 6.0 | 0.00 | 0.00 | 0.00 | 21 | 1023.7 |
| 20260904202045 | 80 | 0 | 0.0 | 6.0 | 0.00 | 0.00 | 0.00 | 22 | 1023.8 |
| 20260904201604 | 80 | 0 | 1.0 | 5.0 | 0.00 | 0.00 | 0.00 | 22 | 1023.9 |
| 20260904201046 | 80 | 0 | 0.0 | 4.0 | 0.00 | 0.00 | 0.00 | 22 | 1023.8 |
| 20260904200546 | 80 | 80 | 0.0 | 4.0 | 0.00 | 0.00 | 0.00 | 21 | 1023.9 |
| 20260904200100 | 80 | 0 | 0.0 | 4.0 | 0.00 | 0.00 | 0.00 | 21 | 1023.9 |
| 20260904195545 | 81 | 0 | 0.0 | 5.0 | 0.00 | 0.00 | 0.00 | 21 | 1023.9 |
| 20260904195047 | 81 | 0 | 1.0 | 10.0 | 0.00 | 0.00 | 0.00 | 21 | 1023.9 |
| 20260904194559 | 81 | 132 | 1.0 | 10.0 | 0.00 | 0.00 | 0.00 | 21 | 1024.0 |
| 20260904194047 | 81 | 72 | 1.0 | 10.0 | 0.00 | 0.00 | 0.00 | 21 | 1024.0 |
| 20260904193547 | 81 | 78 | 1.0 | 5.0 | 0.00 | 0.00 | 0.00 | 21 | 1024.1 |
| 20260904193101 | 80 | 0 | 0.0 | 5.0 | 0.00 | 0.00 | 0.00 | 21 | 1024.0 |
| 20260904192544 | 80 | 110 | 1.0 | 7.0 | 0.00 | 0.00 | 0.00 | 21 | 1024.0 |
| 20260904192140 | 81 | 137 | 2.0 | 9.0 | 0.00 | 0.00 | 0.00 | 22 | 1024.1 |
| 20260904191600 | 81 | 86 | 3.0 | 9.0 | 0.00 | 0.00 | 0.00 | 22 | 1024.0 |
| 20260904191042 | 80 | 68 | 3.0 | 9.0 | 0.00 | 0.00 | 0.00 | 22 | 1024.1 |
| 20260904190545 | 80 | 164 | 1.0 | 15.0 | 0.00 | 0.00 | 0.00 | 22 | 1024.1 |
| 20260904190108 | 80 | 0 | 2.0 | 15.0 | 0.00 | 0.00 | 0.00 | 22 | 1024.2 |
| 20260904185543 | 81 | 67 | 0.0 | 6.0 | 0.00 | 0.00 | 0.00 | 22 | 1024.2 |
| 20260904185044 | 81 | 49 | 1.0 | 12.0 | 0.00 | 0.00 | 0.00 | 22 | 1024.2 |
| 20260904184607 | 81 | 107 | 3.0 | 12.0 | 0.00 | 0.00 | 0.00 | 22 | 1024.2 |
| 20260904184043 | 80 | 139 | 1.0 | 11.0 | 0.00 | 0.00 | 0.00 | 24 | 1024.2 |
| 20260904183545 | 79 | 46 | 2.0 | 11.0 | 0.00 | 0.00 | 0.00 | 24 | 1024.2 |
| 20260904183101 | 79 | 0 | 0.0 | 6.0 | 0.00 | 0.00 | 0.00 | 24 | 1024.3 |
| 20260904182546 | 79 | 63 | 1.0 | 19.0 | 0.00 | 0.00 | 0.00 | 24 | 1024.4 |
| 20260904182042 | 80 | 60 | 4.0 | 19.0 | 0.00 | 0.00 | 0.00 | 24 | 1024.4 |
| 20260904181557 | 80 | 0 | 0.0 | 6.0 | 0.00 | 0.00 | 0.00 | 21 | 1024.4 |
| 20260904181043 | 81 | 0 | 0.0 | 9.0 | 0.00 | 0.00 | 0.00 | 21 | 1024.5 |
| 20260904180544 | 81 | 200 | 0.0 | 9.0 | 0.00 | 0.00 | 0.00 | 21 | 1024.4 |
| 20260904180112 | 80 | 232 | 2.0 | 9.0 | 0.00 | 0.00 | 0.00 | 22 | 1024.4 |
| 20260904175544 | 80 | 342 | 0.0 | 8.0 | 0.00 | 0.00 | 0.00 | 22 | 1024.5 |
| 20260904175043 | 80 | 351 | 3.0 | 8.0 | 0.00 | 0.00 | 0.00 | 22 | 1024.5 |
| 20260904174558 | 79 | 360 | 1.0 | 7.0 | 0.00 | 0.00 | 0.00 | 23 | 1024.6 |
| 20260904174042 | 79 | 0 | 0.0 | 7.0 | 0.00 | 0.00 | 0.00 | 22 | 1024.7 |
| 20260904173543 | 79 | 0 | 0.0 | 5.0 | 0.00 | 0.00 | 0.00 | 22 | 1024.7 |
| 20260904173105 | 79 | 0 | 1.0 | 8.0 | 0.00 | 0.00 | 0.00 | 22 | 1024.7 |
| 20260904172544 | 79 | 0 | 0.0 | 13.0 | 0.00 | 0.00 | 0.00 | 22 | 1024.7 |
| 20260904172043 | 79 | 294 | 2.0 | 13.0 | 0.00 | 0.00 | 0.00 | 23 | 1024.7 |
| 20260904171605 | 78 | 206 | 0.0 | 7.0 | 0.00 | 0.00 | 0.00 | 24 | 1024.7 |
| 20260904171043 | 78 | 0 | 0.0 | 7.0 | 0.00 | 0.00 | 0.00 | 23 | 1024.7 |
| 20260904170545 | 78 | 0 | 0.0 | 7.0 | 0.00 | 0.00 | 0.00 | 23 | 1024.9 |
| 20260904170110 | 78 | 0 | 1.0 | 7.0 | 0.00 | 0.00 | 0.00 | 23 | 1024.9 |
| 20260904165543 | 78 | 250 | 1.0 | 7.0 | 0.00 | 0.00 | 0.00 | 23 | 1024.9 |
| 20260904165046 | 77 | 0 | 1.0 | 7.0 | 0.00 | 0.00 | 0.00 | 23 | 1024.8 |
| 20260904164606 | 78 | 223 | 2.0 | 7.0 | 0.00 | 0.00 | 0.00 | 23 | 1024.9 |
| 20260904164047 | 77 | 242 | 0.0 | 8.0 | 0.00 | 0.00 | 0.00 | 24 | 1024.7 |
| 20260904163545 | 77 | 231 | 1.0 | 10.0 | 0.00 | 0.00 | 0.00 | 25 | 1024.7 |
| 20260904163109 | 77 | 0 | 1.0 | 10.0 | 0.00 | 0.00 | 0.00 | 25 | 1024.7 |
| 20260904162545 | 77 | 0 | 1.0 | 8.0 | 0.00 | 0.00 | 0.00 | 25 | 1024.6 |
| 20260904162044 | 76 | 286 | 1.0 | 8.0 | 0.00 | 0.00 | 0.00 | 26 | 1024.7 |
| 20260904161602 | 76 | 0 | 1.0 | 9.0 | 0.00 | 0.00 | 0.00 | 25 | 1024.8 |
| 20260904161044 | 76 | 276 | 1.0 | 9.0 | 0.00 | 0.00 | 0.00 | 25 | 1024.7 |
| 20260904160544 | 76 | 0 | 1.0 | 8.0 | 0.00 | 0.00 | 0.00 | 26 | 1024.6 |
| 20260904160106 | 75 | 0 | 2.0 | 8.0 | 0.00 | 0.00 | 0.00 | 27 | 1024.6 |
| 20260904155547 | 75 | 234 | 0.0 | 10.0 | 0.00 | 0.00 | 0.00 | 27 | 1024.7 |
| 20260904155045 | 75 | 0 | 1.0 | 10.0 | 0.00 | 0.00 | 0.00 | 27 | 1024.7 |
| 20260904154607 | 75 | 0 | 1.0 | 10.0 | 0.00 | 0.00 | 0.00 | 27 | 1024.5 |
| 20260904154045 | 75 | 0 | 2.0 | 8.0 | 0.00 | 0.00 | 0.00 | 27 | 1024.5 |
| 20260904153545 | 74 | 281 | 1.0 | 8.0 | 0.00 | 0.00 | 0.00 | 28 | 1024.4 |
| 20260904153106 | 74 | 218 | 1.0 | 9.0 | 0.00 | 0.00 | 0.00 | 28 | 1024.4 |
| 20260904152544 | 74 | 0 | 1.0 | 9.0 | 0.00 | 0.00 | 0.00 | 29 | 1024.4 |
| 20260904152048 | 73 | 0 | 1.0 | 9.0 | 0.00 | 0.00 | 0.00 | 29 | 1024.3 |
| 20260904151557 | 73 | 0 | 1.0 | 8.0 | 0.00 | 0.00 | 0.00 | 30 | 1024.3 |
| 20260904151044 | 73 | 215 | 0.0 | 8.0 | 0.00 | 0.00 | 0.00 | 30 | 1024.4 |
| 20260904150548 | 72 | 0 | 1.0 | 8.0 | 0.00 | 0.00 | 0.00 | 30 | 1024.3 |
| 20260904150105 | 72 | 0 | 0.0 | 4.0 | 0.00 | 0.00 | 0.00 | 30 | 1024.3 |
| 20260904145545 | 72 | 275 | 0.0 | 4.0 | 0.00 | 0.00 | 0.00 | 30 | 1024.3 |
| 20260904145044 | 71 | 0 | 0.0 | 5.0 | 0.00 | 0.00 | 0.00 | 31 | 1024.3 |
| 20260904144603 | 71 | 0 | 0.0 | 5.0 | 0.00 | 0.00 | 0.00 | 31 | 1024.2 |
| 20260904144044 | 70 | 0 | 0.0 | 9.0 | 0.00 | 0.00 | 0.00 | 31 | 1024.2 |
| 20260904143545 | 70 | 0 | 1.0 | 9.0 | 0.00 | 0.00 | 0.00 | 31 | 1024.2 |
| 20260904143100 | 70 | 0 | 1.0 | 8.0 | 0.00 | 0.00 | 0.00 | 31 | 1024.3 |
| 20260904142545 | 69 | 0 | 0.0 | 7.0 | 0.00 | 0.00 | 0.00 | 32 | 1024.2 |
| 20260904142047 | 69 | 294 | 1.0 | 6.0 | 0.00 | 0.00 | 0.00 | 32 | 1024.2 |
| 20260904141614 | 68 | 257 | 0.0 | 6.0 | 0.00 | 0.00 | 0.00 | 32 | 1024.1 |
| 20260904141048 | 68 | 0 | 1.0 | 7.0 | 0.00 | 0.00 | 0.00 | 32 | 1024.1 |
| 20260904140545 | 68 | 269 | 1.0 | 7.0 | 0.00 | 0.00 | 0.00 | 32 | 1024.0 |
| 20260904140106 | 67 | 0 | 0.0 | 3.0 | 0.00 | 0.00 | 0.00 | 33 | 1023.9 |
| 20260904135545 | 67 | 0 | 0.0 | 4.0 | 0.00 | 0.00 | 0.00 | 33 | 1023.8 |
| 20260904135045 | 66 | 0 | 0.0 | 4.0 | 0.00 | 0.00 | 0.00 | 34 | 1023.8 |
| 20260904134605 | 66 | 0 | 0.0 | 4.0 | 0.00 | 0.00 | 0.00 | 34 | 1023.7 |
| 20260904134048 | 65 | 0 | 0.0 | 4.0 | 0.00 | 0.00 | 0.00 | 34 | 1023.6 |
| 20260904133545 | 65 | 0 | 0.0 | 4.0 | 0.00 | 0.00 | 0.00 | 34 | 1023.5 |
| 20260904133100 | 64 | 0 | 0.0 | 7.0 | 0.00 | 0.00 | 0.00 | 35 | 1023.3 |
| 20260904132548 | 63 | 0 | 0.0 | 7.0 | 0.00 | 0.00 | 0.00 | 35 | 1023.2 |
| 20260904132050 | 63 | 0 | 0.0 | 6.0 | 0.00 | 0.00 | 0.00 | 36 | 1023.2 |
| 20260904131626 | 62 | 0 | 0.0 | 6.0 | 0.00 | 0.00 | 0.00 | 37 | 1023.1 |
| 20260904131050 | 61 | 0 | 0.0 | 3.0 | 0.00 | 0.00 | 0.00 | 38 | 1022.9 |
| 20260904130545 | 61 | 0 | 0.0 | 3.0 | 0.00 | 0.00 | 0.00 | 37 | 1022.9 |
| 20260904130051 | 61 | 0 | 0.0 | 3.0 | 0.00 | 0.00 | 0.00 | 38 | 1022.9 |
| 20260904125544 | 60 | 300 | 0.0 | 3.0 | 0.00 | 0.00 | 0.00 | 37 | 1022.9 |
| 20260904125044 | 60 | 0 | 0.0 | 3.0 | 0.00 | 0.00 | 0.00 | 38 | 1022.7 |
| 20260904124557 | 60 | 0 | 0.0 | 2.0 | 0.00 | 0.00 | 0.00 | 38 | 1022.7 |
| 20260904124043 | 60 | 0 | 0.0 | 3.0 | 0.00 | 0.00 | 0.00 | 38 | 1022.7 |
| 20260904123544 | 60 | 0 | 0.0 | 4.0 | 0.00 | 0.00 | 0.00 | 38 | 1022.7 |
| 20260904123106 | 60 | 0 | 0.0 | 4.0 | 0.00 | 0.00 | 0.00 | 38 | 1022.7 |
| 20260904122543 | 60 | 0 | 0.0 | 2.0 | 0.00 | 0.00 | 0.00 | 37 | 1022.7 |
| 20260904122043 | 60 | 0 | 0.0 | 1.0 | 0.00 | 0.00 | 0.00 | 37 | 1022.6 |
| 20260904121559 | 60 | 0 | 0.0 | 5.0 | 0.00 | 0.00 | 0.00 | 37 | 1022.6 |
| 20260904121044 | 60 | 0 | 0.0 | 5.0 | 0.00 | 0.00 | 0.00 | 38 | 1022.5 |
| 20260904120543 | 60 | 0 | 0.0 | 0.0 | 0.00 | 0.00 | 0.00 | 38 | 1022.5 |
| 20260904120106 | 60 | 0 | 0.0 | 0.0 | 0.00 | 0.00 | 0.00 | 38 | 1022.5 |
| 20260904115544 | 60 | 0 | 0.0 | 2.0 | 0.00 | 0.00 | 0.00 | 37 | 1022.4 |
| 20260904115044 | 60 | 0 | 0.0 | 5.0 | 0.00 | 0.00 | 0.00 | 37 | 1022.4 |
| 20260904114556 | 60 | 0 | 0.0 | 5.0 | 0.00 | 0.00 | 0.00 | 37 | 1022.4 |
| 20260904114044 | 60 | 0 | 0.0 | 5.0 | 0.00 | 0.00 | 0.00 | 38 | 1022.4 |
| 20260904113544 | 60 | 0 | 0.0 | 2.0 | 0.00 | 0.00 | 0.00 | 38 | 1022.4 |
| 20260904113057 | 60 | 0 | 0.0 | 2.0 | 0.00 | 0.00 | 0.00 | 38 | 1022.4 |
| 20260904112543 | 60 | 0 | 0.0 | 2.0 | 0.00 | 0.00 | 0.00 | 37 | 1022.4 |
| 20260904112043 | 60 | 0 | 0.0 | 2.0 | 0.00 | 0.00 | 0.00 | 37 | 1022.3 |
| 20260904111610 | 60 | 0 | 0.0 | 5.0 | 0.00 | 0.00 | 0.00 | 37 | 1022.4 |
| 20260904111043 | 60 | 0 | 0.0 | 5.0 | 0.00 | 0.00 | 0.00 | 37 | 1022.3 |
| 20260904110542 | 60 | 0 | 0.0 | 2.0 | 0.00 | 0.00 | 0.00 | 37 | 1022.4 |
| 20260904110106 | 60 | 0 | 0.0 | 2.0 | 0.00 | 0.00 | 0.00 | 37 | 1022.3 |
| 20260904105543 | 60 | 0 | 0.0 | 0.0 | 0.00 | 0.00 | 0.00 | 37 | 1022.3 |
| 20260904105044 | 61 | 0 | 0.0 | 4.0 | 0.00 | 0.00 | 0.00 | 36 | 1022.3 |
| 20260904104601 | 61 | 0 | 0.0 | 4.0 | 0.00 | 0.00 | 0.00 | 36 | 1022.3 |
| 20260904104044 | 61 | 0 | 0.0 | 7.0 | 0.00 | 0.00 | 0.00 | 35 | 1022.2 |
| 20260904103542 | 61 | 0 | 0.0 | 7.0 | 0.00 | 0.00 | 0.00 | 35 | 1022.3 |
| 20260904103108 | 61 | 0 | 0.0 | 8.0 | 0.00 | 0.00 | 0.00 | 36 | 1022.2 |
| 20260904102544 | 61 | 0 | 0.0 | 8.0 | 0.00 | 0.00 | 0.00 | 36 | 1022.3 |
| 20260904102044 | 61 | 299 | 0.0 | 7.0 | 0.00 | 0.00 | 0.00 | 36 | 1022.2 |
| 20260904101604 | 61 | 235 | 0.0 | 5.0 | 0.00 | 0.00 | 0.00 | 36 | 1022.2 |
| 20260904101044 | 61 | 0 | 0.0 | 5.0 | 0.00 | 0.00 | 0.00 | 36 | 1022.2 |
| 20260904100548 | 61 | 0 | 0.0 | 3.0 | 0.00 | 0.00 | 0.00 | 36 | 1022.2 |
| 20260904100107 | 61 | 0 | 0.0 | 3.0 | 0.00 | 0.00 | 0.00 | 36 | 1022.2 |
| 20260904095545 | 61 | 0 | 0.0 | 5.0 | 0.00 | 0.00 | 0.00 | 35 | 1022.2 |
| 20260904095045 | 62 | 281 | 0.0 | 6.0 | 0.00 | 0.00 | 0.00 | 35 | 1022.2 |
| 20260904094557 | 62 | 0 | 1.0 | 6.0 | 0.00 | 0.00 | 0.00 | 35 | 1022.1 |
| 20260904094045 | 62 | 292 | 0.0 | 3.0 | 0.00 | 0.00 | 0.00 | 35 | 1022.1 |
| 20260904093544 | 62 | 0 | 0.0 | 7.0 | 0.00 | 0.00 | 0.00 | 35 | 1022.1 |
| 20260904093103 | 62 | 0 | 0.0 | 7.0 | 0.00 | 0.00 | 0.00 | 35 | 1022.1 |
| 20260904092545 | 62 | 0 | 0.0 | 8.0 | 0.00 | 0.00 | 0.00 | 35 | 1022.0 |
| 20260904092045 | 62 | 0 | 0.0 | 8.0 | 0.00 | 0.00 | 0.00 | 36 | 1022.1 |
| 20260904091559 | 62 | 0 | 0.0 | 8.0 | 0.00 | 0.00 | 0.00 | 35 | 1022.0 |
| 20260904091044 | 62 | 0 | 0.0 | 8.0 | 0.00 | 0.00 | 0.00 | 35 | 1022.0 |
| 20260904090544 | 62 | 0 | 1.0 | 9.0 | 0.00 | 0.00 | 0.00 | 36 | 1022.1 |
| 20260904090057 | 61 | 0 | 0.0 | 11.0 | 0.00 | 0.00 | 0.00 | 36 | 1022.0 |
| 20260904085544 | 61 | 0 | 1.0 | 11.0 | 0.00 | 0.00 | 0.00 | 36 | 1022.1 |
| 20260904085045 | 61 | 0 | 1.0 | 11.0 | 0.00 | 0.00 | 0.00 | 36 | 1022.1 |
| 20260904084558 | 61 | 296 | 0.0 | 4.0 | 0.00 | 0.00 | 0.00 | 36 | 1022.2 |
| 20260904084047 | 61 | 271 | 0.0 | 5.0 | 0.00 | 0.00 | 0.00 | 36 | 1022.1 |
| 20260904083545 | 62 | 0 | 0.0 | 5.0 | 0.00 | 0.00 | 0.00 | 36 | 1022.2 |
| 20260904083102 | 62 | 0 | 0.0 | 7.0 | 0.00 | 0.00 | 0.00 | 35 | 1022.1 |
| 20260904082545 | 62 | 0 | 0.0 | 7.0 | 0.00 | 0.00 | 0.00 | 35 | 1022.1 |
| 20260904082045 | 62 | 0 | 0.0 | 7.0 | 0.00 | 0.00 | 0.00 | 35 | 1022.2 |
| 20260904081559 | 62 | 236 | 0.0 | 8.0 | 0.00 | 0.00 | 0.00 | 35 | 1022.2 |
| 20260904081047 | 63 | 0 | 0.0 | 8.0 | 0.00 | 0.00 | 0.00 | 35 | 1022.1 |
| 20260904080547 | 63 | 0 | 0.0 | 7.0 | 0.00 | 0.00 | 0.00 | 35 | 1022.2 |
| 20260904080058 | 63 | 0 | 0.0 | 7.0 | 0.00 | 0.00 | 0.00 | 35 | 1022.0 |
| 20260904075548 | 63 | 239 | 1.0 | 7.0 | 0.00 | 0.00 | 0.00 | 36 | 1022.2 |
| 20260904075047 | 62 | 0 | 0.0 | 3.0 | 0.00 | 0.00 | 0.00 | 36 | 1022.2 |
| 20260904074636 | 62 | 0 | 0.0 | 0.0 | 0.00 | 0.00 | 0.00 | 37 | 1022.2 |
| 20260904074045 | 62 | 0 | 0.0 | 1.0 | 0.00 | 0.00 | 0.00 | 39 | 1022.1 |
| 20260904073545 | 62 | 0 | 0.0 | 1.0 | 0.00 | 0.00 | 0.00 | 40 | 1022.2 |
| 20260904073101 | 62 | 0 | 0.0 | 0.0 | 0.00 | 0.00 | 0.00 | 40 | 1022.3 |
| 20260904072545 | 62 | 0 | 0.0 | 4.0 | 0.00 | 0.00 | 0.00 | 40 | 1022.2 |
| 20260904072044 | 62 | 0 | 0.0 | 4.0 | 0.00 | 0.00 | 0.00 | 40 | 1022.2 |
| 20260904071601 | 62 | 0 | 0.0 | 3.0 | 0.00 | 0.00 | 0.00 | 41 | 1022.3 |
| 20260904071044 | 62 | 0 | 0.0 | 0.0 | 0.00 | 0.00 | 0.00 | 41 | 1022.3 |
| 20260904070550 | 61 | 0 | 0.0 | 0.0 | 0.00 | 0.00 | 0.00 | 41 | 1022.4 |
| 20260904070059 | 62 | 0 | 0.0 | 0.0 | 0.00 | 0.00 | 0.00 | 42 | 1022.4 |
| 20260904065547 | 62 | 0 | 0.0 | 0.0 | 0.00 | 0.00 | 0.00 | 42 | 1022.3 |
| 20260904065045 | 62 | 0 | 0.0 | 0.0 | 0.00 | 0.00 | 0.00 | 42 | 1022.3 |
| 20260904064553 | 62 | 0 | 0.0 | 0.0 | 0.00 | 0.00 | 0.00 | 42 | 1022.4 |
| 20260904064047 | 62 | 0 | 0.0 | 0.0 | 0.00 | 0.00 | 0.00 | 42 | 1022.5 |
| 20260904063545 | 62 | 0 | 0.0 | 1.0 | 0.00 | 0.00 | 0.00 | 42 | 1022.5 |
| 20260904063111 | 62 | 0 | 0.0 | 2.0 | 0.00 | 0.00 | 0.00 | 41 | 1022.5 |
| 20260904062548 | 62 | 0 | 0.0 | 4.0 | 0.00 | 0.00 | 0.00 | 41 | 1022.4 |
| 20260904062049 | 62 | 0 | 0.0 | 4.0 | 0.00 | 0.00 | 0.00 | 41 | 1022.3 |
| 20260904061602 | 62 | 294 | 0.0 | 9.0 | 0.00 | 0.00 | 0.00 | 41 | 1022.3 |
| 20260904061044 | 63 | 0 | 0.0 | 9.0 | 0.00 | 0.00 | 0.00 | 41 | 1022.4 |
| 20260904060548 | 63 | 0 | 0.0 | 9.0 | 0.00 | 0.00 | 0.00 | 41 | 1022.4 |
| 20260904060113 | 62 | 0 | 0.0 | 6.0 | 0.00 | 0.00 | 0.00 | 41 | 1022.4 |
| 20260904055547 | 62 | 0 | 0.0 | 5.0 | 0.00 | 0.00 | 0.00 | 41 | 1022.3 |
| 20260904055044 | 62 | 0 | 0.0 | 5.0 | 0.00 | 0.00 | 0.00 | 41 | 1022.3 |
| 20260904054555 | 62 | 0 | 1.0 | 5.0 | 0.00 | 0.00 | 0.00 | 41 | 1022.3 |
| 20260904054046 | 62 | 0 | 0.0 | 7.0 | 0.00 | 0.00 | 0.00 | 41 | 1022.3 |
| 20260904053547 | 63 | 0 | 0.0 | 7.0 | 0.00 | 0.00 | 0.00 | 41 | 1022.2 |
| 20260904053101 | 63 | 0 | 1.0 | 6.0 | 0.00 | 0.00 | 0.00 | 41 | 1022.2 |
| 20260904052548 | 63 | 0 | 0.0 | 7.0 | 0.00 | 0.00 | 0.00 | 41 | 1022.2 |
| 20260904052047 | 63 | 242 | 0.0 | 7.0 | 0.00 | 0.00 | 0.00 | 41 | 1022.3 |
| 20260904051608 | 63 | 0 | 0.0 | 4.0 | 0.00 | 0.00 | 0.00 | 41 | 1022.2 |
| 20260904051047 | 63 | 0 | 0.0 | 8.0 | 0.00 | 0.00 | 0.00 | 41 | 1022.2 |
| 20260904050547 | 63 | 0 | 0.0 | 8.0 | 0.00 | 0.00 | 0.00 | 41 | 1022.3 |
| 20260904050057 | 63 | 185 | 0.0 | 4.0 | 0.00 | 0.00 | 0.00 | 41 | 1022.3 |
| 20260904045547 | 63 | 0 | 0.0 | 5.0 | 0.00 | 0.00 | 0.00 | 41 | 1022.3 |
| 20260904045046 | 63 | 275 | 0.0 | 5.0 | 0.00 | 0.00 | 0.00 | 41 | 1022.4 |
| 20260904044609 | 63 | 0 | 0.0 | 2.0 | 0.00 | 0.00 | 0.00 | 41 | 1022.4 |